Starlink 11702

operational
NORAD ID: 63752 Int'l Des: 2025-089 Owner: SPXS Country: US Constellation: starlink
LEOCIRCULAR

Über Starlink 11702

Beschreibung wird geladen...

Live-Position

3D-Globus wird geladen...

Nächste Überflüge

Höhenverlauf

Altitude vs Time

uPlot chart will show altitude changes over time

Zweizeiliger Elementsatz

1 63752U 25089B 25306.44390863 .00255425 00000-0 19348-2 0 9990
2 63752 43.0011 339.1877 0001336 293.2060 66.8667 15.70824615 30121
Epoch: 2. Nov. 2025 • Age: 28 hours

Aktueller Status

Höhe 358.2 km
Geschwindigkeit 7.70 km/s
Subsatellitenpunkt 41.57°N, 143.56°E
Startdatum 29. Apr. 2025
Alter 0.5 years
Typ internet

Technische Details

Klassifizierung Payload
Masse 960.00 kg
Trockenmasse 910.00 kg
Gesamtmasse 960.00 kg
Länge 0.30 m
Durchmesser 4.10 m
Spannweite 29.00 m
Form Box + pan
Hersteller SPXS
Bus-Typ Starlink V2MD
Phasenstatus In Orbit
Besitzer/Staat SPXS/US

Große Konstellationen

Loading constellations...